| time (UTC) | temp C | wind direction | speed KPH | gust KPH | rain 1hr cm | rain 24hr cm | rain mn cm | humidity % | barometer mb |
| 20260507030056 | 6 | 0 | 0.0 | 0.0 | 0.00 | 0.89 | 0.89 | 78 | 1011.3 |
| 20260507024548 | 6 | 0 | 0.0 | 0.0 | 0.00 | 0.89 | 0.89 | 78 | 1011.6 |
| 20260507023101 | 6 | 0 | 0.0 | 0.0 | 0.00 | 0.89 | 0.89 | 78 | 1011.9 |
| 20260507021549 | 7 | 0 | 0.0 | 0.0 | 0.00 | 0.89 | 0.89 | 78 | 1011.8 |
| 20260507020050 | 7 | 0 | 0.0 | 0.0 | 0.00 | 0.89 | 0.89 | 77 | 1012.1 |
| 20260507014555 | 7 | 65 | 0.0 | 1.6 | 0.00 | 0.89 | 0.89 | 77 | 1011.9 |
| 20260507013048 | 7 | 0 | 0.0 | 0.0 | 0.00 | 0.89 | 0.89 | 77 | 1012.2 |
| 20260507011554 | 7 | 0 | 0.0 | 0.0 | 0.00 | 0.89 | 0.89 | 77 | 1012.0 |
| 20260507010054 | 7 | 0 | 0.0 | 0.0 | 0.00 | 0.89 | 0.89 | 76 | 1012.0 |
| 20260507004553 | 7 | 0 | 0.0 | 0.0 | 0.00 | 0.89 | 0.89 | 76 | 1011.8 |
| 20260507003050 | 7 | 0 | 0.0 | 0.0 | 0.00 | 0.89 | 0.89 | 76 | 1011.6 |
| 20260507001557 | 8 | 0 | 0.0 | 1.6 | 0.00 | 0.89 | 0.89 | 75 | 1011.3 |
| 20260507000053 | 8 | 0 | 0.0 | 1.6 | 0.00 | 0.89 | 0.89 | 75 | 1011.1 |
| 20260506234548 | 8 | 0 | 0.0 | 1.6 | 0.00 | 0.89 | 0.89 | 74 | 1011.0 |
| 20260506233114 | 8 | 0 | 0.0 | 0.0 | 0.00 | 0.89 | 0.89 | 75 | 1010.9 |
| 20260506231552 | 8 | 58 | 0.0 | 4.8 | 0.00 | 0.89 | 0.89 | 74 | 1010.7 |
| 20260506230052 | 8 | 0 | 0.0 | 9.7 | 0.00 | 0.89 | 0.89 | 74 | 1010.8 |
| 20260506224554 | 8 | 20 | 1.6 | 11.3 | 0.00 | 0.89 | 0.89 | 74 | 1010.7 |
| 20260506223048 | 8 | 0 | 1.6 | 4.8 | 0.00 | 0.89 | 0.89 | 75 | 1010.6 |
| 20260506221552 | 8 | 23 | 0.0 | 11.3 | 0.00 | 0.89 | 0.89 | 75 | 1010.4 |
| 20260506220056 | 8 | 51 | 3.2 | 11.3 | 0.00 | 0.89 | 0.89 | 75 | 1010.1 |
| 20260506214553 | 8 | 0 | 1.6 | 8.0 | 0.00 | 0.89 | 0.89 | 75 | 1010.0 |
| 20260506213110 | 8 | 77 | 0.0 | 6.4 | 0.03 | 0.89 | 0.89 | 75 | 1009.7 |
| 20260506211552 | 8 | 59 | 1.6 | 9.7 | 0.08 | 0.89 | 0.89 | 76 | 1009.5 |
| 20260506210056 | 8 | 24 | 3.2 | 9.7 | 0.08 | 0.89 | 0.89 | 76 | 1009.3 |
| 20260506204554 | 8 | 20 | 1.6 | 12.9 | 0.08 | 0.89 | 0.89 | 76 | 1008.9 |
| 20260506203052 | 8 | 58 | 1.6 | 16.1 | 0.08 | 0.86 | 0.86 | 77 | 1008.9 |
| 20260506201549 | 8 | 0 | 4.8 | 9.7 | 0.05 | 0.81 | 0.81 | 76 | 1008.5 |
| 20260506200047 | 8 | 30 | 1.6 | 12.9 | 0.10 | 0.81 | 0.81 | 76 | 1008.2 |
| 20260506194614 | 8 | 47 | 1.6 | 12.9 | 0.10 | 0.81 | 0.81 | 76 | 1008.2 |
| 20260506193057 | 9 | 356 | 3.2 | 16.1 | 0.08 | 0.79 | 0.79 | 76 | 1008.0 |
| 20260506191553 | 9 | 60 | 4.8 | 20.9 | 0.05 | 0.76 | 0.76 | 75 | 1007.7 |
| 20260506184550 | 14 | 269 | 6.4 | 19.3 | 0.00 | 0.71 | 0.71 | 71 | 1007.0 |
| 20260506183050 | 15 | 94 | 4.8 | 20.9 | 0.00 | 0.71 | 0.71 | 73 | 1006.6 |
| 20260506181552 | 15 | 343 | 4.8 | 14.5 | 0.00 | 0.71 | 0.71 | 74 | 1006.8 |
| 20260506180059 | 15 | 301 | 6.4 | 19.3 | 0.00 | 0.71 | 0.71 | 74 | 1006.8 |
| 20260506174550 | 15 | 313 | 8.0 | 14.5 | 0.00 | 0.71 | 0.71 | 75 | 1006.7 |
| 20260506173056 | 15 | 318 | 4.8 | 16.1 | 0.00 | 0.71 | 0.71 | 76 | 1006.6 |
| 20260506171558 | 15 | 82 | 0.0 | 4.8 | 0.03 | 0.71 | 0.71 | 77 | 1006.7 |
| 20260506164551 | 14 | 44 | 0.0 | 8.0 | 0.03 | 0.71 | 0.71 | 78 | 1006.8 |
| 20260506163110 | 14 | 254 | 1.6 | 8.0 | 0.03 | 0.71 | 0.71 | 77 | 1006.8 |
| 20260506161549 | 13 | 300 | 3.2 | 11.3 | 0.03 | 0.69 | 0.69 | 77 | 1007.0 |
| 20260506160050 | 13 | 0 | 0.0 | 3.2 | 0.05 | 0.69 | 0.69 | 77 | 1006.9 |
| 20260506154608 | 13 | 285 | 0.0 | 3.2 | 0.05 | 0.69 | 0.69 | 78 | 1007.1 |
| 20260506153054 | 13 | 0 | 0.0 | 11.3 | 0.08 | 0.69 | 0.69 | 78 | 1006.9 |
| 20260506151552 | 13 | 0 | 1.6 | 6.4 | 0.08 | 0.66 | 0.66 | 78 | 1007.1 |
| 20260506150049 | 13 | 44 | 0.0 | 3.2 | 0.05 | 0.64 | 0.64 | 78 | 1007.0 |
| 20260506144549 | 13 | 0 | 3.2 | 8.0 | 0.05 | 0.64 | 0.64 | 77 | 1006.9 |
| 20260506143104 | 13 | 162 | 1.6 | 12.9 | 0.03 | 0.61 | 0.61 | 77 | 1006.9 |
| 20260506141547 | 13 | 0 | 1.6 | 8.0 | 0.03 | 0.58 | 0.58 | 77 | 1007.0 |
| 20260506140047 | 13 | 49 | 3.2 | 9.7 | 0.10 | 0.58 | 0.58 | 78 | 1006.9 |
| 20260506134551 | 13 | 0 | 1.6 | 8.0 | 0.18 | 0.58 | 0.58 | 78 | 1006.8 |
| 20260506133049 | 13 | 105 | 1.6 | 6.4 | 0.25 | 0.58 | 0.58 | 78 | 1006.7 |
| 20260506131548 | 12 | 89 | 0.0 | 4.8 | 0.25 | 0.56 | 0.56 | 78 | 1007.1 |
| 20260506130047 | 12 | 0 | 0.0 | 4.8 | 0.23 | 0.48 | 0.48 | 78 | 1007.8 |
| 20260506124546 | 12 | 0 | 1.6 | 6.4 | 0.18 | 0.41 | 0.41 | 78 | 1007.8 |
| 20260506123051 | 12 | 0 | 0.0 | 1.6 | 0.13 | 0.33 | 0.33 | 78 | 1007.9 |
| 20260506121549 | 12 | 0 | 0.0 | 0.0 | 0.13 | 0.30 | 0.30 | 78 | 1007.8 |
| 20260506120058 | 12 | 0 | 0.0 | 1.6 | 0.10 | 0.25 | 0.25 | 78 | 1007.5 |
| 20260506114559 | 12 | 0 | 0.0 | 3.2 | 0.08 | 0.23 | 0.23 | 78 | 1007.6 |
| 20260506113053 | 12 | 0 | 0.0 | 0.0 | 0.08 | 0.20 | 0.20 | 78 | 1007.7 |
| 20260506111551 | 12 | 0 | 0.0 | 0.0 | 0.05 | 0.18 | 0.18 | 78 | 1007.7 |
| 20260506110058 | 12 | 0 | 0.0 | 0.0 | 0.08 | 0.15 | 0.15 | 77 | 1007.6 |
| 20260506104550 | 11 | 0 | 0.0 | 0.0 | 0.08 | 0.15 | 0.15 | 77 | 1007.7 |
| 20260506103048 | 11 | 0 | 0.0 | 0.0 | 0.08 | 0.13 | 0.13 | 77 | 1007.7 |
| 20260506101546 | 11 | 0 | 0.0 | 0.0 | 0.08 | 0.13 | 0.13 | 76 | 1007.7 |
| 20260506100051 | 11 | 0 | 0.0 | 0.0 | 0.05 | 0.08 | 0.08 | 76 | 1007.4 |
| 20260506094607 | 11 | 0 | 0.0 | 0.0 | 0.05 | 0.08 | 0.08 | 75 | 1007.3 |
| 20260506093055 | 11 | 0 | 0.0 | 0.0 | 0.05 | 0.05 | 0.05 | 74 | 1007.2 |
| 20260506091549 | 12 | 0 | 0.0 | 0.0 | 0.05 | 0.05 | 0.05 | 72 | 1007.4 |
| 20260506090049 | 12 | 0 | 0.0 | 0.0 | 0.03 | 0.03 | 0.03 | 70 | 1007.3 |
| 20260506084554 | 12 | 0 | 0.0 | 0.0 | 0.03 | 0.03 | 0.03 | 68 | 1007.4 |
| 20260506083103 | 12 | 0 | 0.0 | 0.0 | 0.00 | 0.00 | 0.00 | 67 | 1007.9 |
| 20260506081555 | 12 | 0 | 0.0 | 0.0 | 0.00 | 0.00 | 0.00 | 67 | 1008.1 |
| 20260506073048 | 12 | 0 | 0.0 | 0.0 | 0.00 | 0.00 | 0.00 | 66 | 1007.4 |
| 20260506071546 | 12 | 0 | 0.0 | 0.0 | 0.00 | 0.00 | 0.00 | 66 | 1007.4 |
| 20260506061551 | 13 | 0 | 0.0 | 0.0 | 0.00 | 0.00 | 0.00 | 65 | 1008.1 |
| 20260506044552 | 13 | 0 | 0.0 | 1.6 | 0.00 | 0.00 | 0.00 | 67 | 1009.1 |
| 20260506043053 | 14 | 0 | 0.0 | 0.0 | 0.00 | 0.00 | 0.00 | 66 | 1009.0 |
| 20260506041551 | 15 | 0 | 0.0 | 4.8 | 0.00 | 0.00 | 0.00 | 65 | 1009.0 |
| 20260506040101 | 15 | 0 | 0.0 | 9.7 | 0.00 | 0.00 | 0.00 | 64 | 1009.2 |
| 20260506034558 | 15 | 0 | 0.0 | 4.8 | 0.00 | 0.00 | 0.00 | 63 | 1009.2 |
| 20260506033054 | 15 | 57 | 1.6 | 8.0 | 0.00 | 0.00 | 0.00 | 60 | 1009.2 |
| 20260506031558 | 15 | 0 | 0.0 | 1.6 | 0.00 | 0.00 | 0.00 | 56 | 1008.9 |